Merced, CA

11:44 AM PDT on June 23, 2017 (GMT -0700)
Merced Municipal-Macready

Weather History for KMCE - July, 2013

Change the Weather History Date:

Saturday, July 20, 2013

  Actual Average Record
Temperature  
Mean Temperature 83 °F 78 °F  
Max Temperature 101 °F 95 °F 104 °F (2006)
Min Temperature 65 °F 61 °F 54 °F (1999)
Degree Days  
Heating Degree Days 0    
Month to date heating degree days 0  
Since 1 June heating degree days 0  
Since 1 July heating degree days 0  
Cooling Degree Days 18    
Month to date cooling degree days 337  
Year to date cooling degree days 930  
Since 1 June cooling degree days 693  
Growing Degree Days 32 (Base 50)    
Moisture  
Dew Point 54 °F    
Average Humidity 45    
Maximum Humidity 73    
Minimum Humidity 17    
Precipitation  
Precipitation 0.00 in 0.00 in 0.00 in (2017)
Month to date precipitation T 0.00  
Year to date precipitation 2.78 8.68  
Since 1 July precipitation T  
Snow  
Snow 0.00 in - - ()
Month to date snowfall 0.0  
Since 1 June snowfall 0.0  
Since 1 July snowfall 0.0  
Snow Depth 0.00 in    
Sea Level Pressure  
Sea Level Pressure 29.72 in    
Wind  
Wind Speed 6 mph (WNW)    
Max Wind Speed 8 mph    
Max Gust Speed -    
Visibility 10 miles    
Events      
T = Trace of Precipitation, MM = Missing Value Source: NWS Daily Summary

Daily Weather History Graph

Daily Weather History Graph

Search for Another Location

Airport or City:

Trip Planner

Search our weather history database for the weather conditions in past years. The results will help you decide how hot, cold, wet, or windy it might be!

Date:

Astronomy

Jul. 20, 2013 Rise Set
Actual Time 5:57 AM PDT 8:19 PM PDT
Civil Twilight 5:27 AM PDT 8:48 PM PDT
Nautical Twilight 4:50 AM PDT 9:25 PM PDT
Astronomical Twilight 4:10 AM PDT 10:05 PM PDT
Moon 6:27 PM PDT (7/20) 3:42 AM PDT (7/20)
Length of Visible Light 15h 21m
Length of Day
14h 21m
Waxing Gibbous, 94% of the Moon is Illuminated
Jul 20
Waxing Gibbous
Jul 22
Full
Jul 29
Last Quarter
Aug 6
New
Aug 14
First Quarter

Hourly Weather History & Observations

Time (PDT) Temp. Heat Index Dew Point Humidity Pressure Visibility Wind Dir Wind Speed Gust Speed Precip Events Conditions
12:53 AM 71.1 °F - 57.9 °F 63% 29.76 in 10.0 mi North - - N/A   Clear
1:53 AM 71.1 °F - 57.0 °F 61% 29.76 in 10.0 mi North - - N/A   Clear
2:53 AM 71.1 °F - 55.9 °F 59% 29.75 in 10.0 mi North - - N/A   Clear
3:53 AM 70.0 °F - 55.9 °F 61% 29.75 in 10.0 mi North - - N/A   Clear
4:53 AM 66.9 °F - 55.9 °F 68% 29.75 in 10.0 mi North - - N/A   Clear
5:53 AM 64.9 °F - 55.9 °F 73% 29.75 in 10.0 mi North - - N/A   Clear
6:53 AM 69.1 °F - 55.0 °F 61% 29.76 in 9.0 mi North - - N/A   Clear
7:53 AM 72.0 °F - 55.0 °F 55% 29.77 in 10.0 mi North - - N/A   Clear
8:53 AM 78.1 °F - 55.0 °F 45% 29.78 in 10.0 mi NNW 4.6 mph - N/A   Clear
9:53 AM 82.0 °F 81.6 °F 55.9 °F 41% 29.78 in 10.0 mi West 3.5 mph - N/A   Clear
10:53 AM 87.1 °F 85.3 °F 55.0 °F 33% 29.76 in 10.0 mi Variable 4.6 mph - N/A   Clear
11:53 AM 90.0 °F 87.7 °F 54.0 °F 29% 29.75 in 10.0 mi WNW 6.9 mph - N/A   Clear
12:53 PM 93.9 °F 92.0 °F 55.0 °F 27% 29.73 in 10.0 mi NW 6.9 mph - N/A   Clear
1:53 PM 96.1 °F 93.5 °F 53.1 °F 23% 29.71 in 10.0 mi West 6.9 mph - N/A   Clear
2:53 PM 99.0 °F - 51.1 °F 20% 29.70 in 10.0 mi WNW 8.1 mph - N/A   Clear
3:53 PM 100.0 °F - 52.0 °F 20% 29.68 in 10.0 mi NW 8.1 mph - N/A   Clear
4:53 PM 100.0 °F - 48.9 °F 18% 29.67 in 10.0 mi NNW 8.1 mph - N/A   Clear
5:53 PM 100.0 °F - 51.1 °F 19% 29.65 in 10.0 mi WNW 6.9 mph - N/A   Clear
6:53 PM 98.1 °F - 51.1 °F 20% 29.66 in 10.0 mi WNW 3.5 mph - N/A   Clear
7:53 PM 93.0 °F 92.3 °F 59.0 °F 32% 29.66 in 10.0 mi West 4.6 mph - N/A   Clear
8:53 PM 82.9 °F 82.6 °F 57.9 °F 42% 29.67 in 10.0 mi WSW 5.8 mph - N/A   Clear
9:53 PM 80.1 °F 79.9 °F 53.1 °F 39% 29.69 in 10.0 mi Calm Calm - N/A   Clear
10:53 PM 79.0 °F - 51.1 °F 38% 29.70 in 10.0 mi Calm Calm - N/A   Clear
11:53 PM 73.9 °F - 54.0 °F 50% 29.70 in 10.0 mi West 6.9 mph - N/A   Clear